Bartlesville, OK

12:50 PM CDT on March 26, 2017 (GMT -0500)
Bartlesville Municipal

Weather History for KBVO - June, 2014

Change the Weather History Date:

Sunday, June 29, 2014

  Actual Average Record
Temperature  
Mean Temperature 77 °F -  
Max Temperature 90 °F 92 °F 102 °F (1952)
Min Temperature 66 °F 69 °F 54 °F (1958)
Cooling Degree Days 12    
Growing Degree Days 27 (Base 50)    
Moisture  
Dew Point 71 °F    
Average Humidity 88    
Maximum Humidity 100    
Minimum Humidity 67    
Precipitation  
Precipitation 0.00 in - - ()
Sea Level Pressure  
Sea Level Pressure 29.91 in    
Wind  
Wind Speed 2 mph (South)    
Max Wind Speed 14 mph    
Max Gust Speed 20 mph    
Visibility 6 miles    
Events      
Averages and records for this station are not official NWS values.
T = Trace of Precipitation, MM = Missing Value Source: NWS Daily Summary

Daily Weather History Graph

Daily Weather History Graph

Search for Another Location

Airport or City:

Trip Planner

Search our weather history database for the weather conditions in past years. The results will help you decide how hot, cold, wet, or windy it might be!

Date:

Astronomy

Jun. 29, 2014 Rise Set
Actual Time 6:07 AM CDT 8:47 PM CDT
Civil Twilight 5:37 AM CDT 9:17 PM CDT
Nautical Twilight 4:59 AM CDT 9:55 PM CDT
Astronomical Twilight 4:16 AM CDT 10:38 PM CDT
Moon 8:22 AM CDT (6/29) 10:12 PM CDT (6/29)
Length of Visible Light 15h 40m
Length of Day
14h 39m
Waxing Crescent, 5% of the Moon is Illuminated
Jun 29
Waxing Crescent
Jul 5
First Quarter
Jul 12
Full
Jul 18
Last Quarter
Jul 26
New

Hourly Weather History & Observations

Time (CDT) Temp. Heat Index Dew Point Humidity Pressure Visibility Wind Dir Wind Speed Gust Speed Precip Events Conditions
12:42 AM 68.0 °F - 68.0 °F 100% 29.95 in 1.5 mi Calm Calm - N/A   Partly Cloudy
12:53 AM 68.0 °F - 66.9 °F 96% 29.92 in 3.0 mi Calm Calm - N/A   Scattered Clouds
1:11 AM 68.0 °F - 66.9 °F 96% 29.95 in 2.5 mi Calm Calm - N/A   Partly Cloudy
1:22 AM 68.0 °F - 66.9 °F 96% 29.95 in 3.0 mi Calm Calm - N/A   Clear
1:37 AM 68.0 °F - 66.9 °F 96% 29.94 in 1.8 mi Calm Calm - N/A   Clear
1:53 AM 68.0 °F - 66.9 °F 96% 29.92 in 1.2 mi Calm Calm - N/A   Clear
2:13 AM 68.0 °F - 66.9 °F 96% 29.94 in 3.0 mi Calm Calm - N/A   Clear
2:27 AM 68.0 °F - 66.9 °F 96% 29.93 in 1.8 mi Calm Calm - N/A   Partly Cloudy
2:41 AM 66.9 °F - 66.9 °F 100% 29.93 in 0.8 mi Calm Calm - N/A   Partly Cloudy
2:48 AM 66.2 °F - 66.2 °F 100% 29.93 in 1.5 mi Calm Calm - N/A   Partly Cloudy
2:53 AM 66.9 °F - 66.0 °F 97% 29.91 in 1.2 mi Calm Calm - N/A   Clear
3:00 AM 68.0 °F - 66.9 °F 96% 29.93 in 3.0 mi Calm Calm - N/A   Clear
3:44 AM 68.0 °F - 66.0 °F 93% 29.92 in 1.8 mi Calm Calm - N/A   Clear
3:53 AM 68.0 °F - 66.9 °F 96% 29.90 in 1.0 mi Calm Calm - N/A   Clear
4:02 AM 68.0 °F - 66.9 °F 96% 29.92 in 3.0 mi Calm Calm - N/A   Clear
4:08 AM 68.0 °F - 66.9 °F 96% 29.92 in 1.8 mi Calm Calm - N/A   Clear
4:21 AM 66.9 °F - 66.9 °F 100% 29.92 in 3.0 mi Calm Calm - N/A   Partly Cloudy
4:48 AM 68.0 °F - 66.2 °F 94% 29.92 in 2.0 mi Calm Calm - N/A   Clear
4:53 AM 68.0 °F - 66.9 °F 96% 29.90 in 1.8 mi Calm Calm - N/A   Clear
5:00 AM 69.1 °F - 68.0 °F 96% 29.92 in 3.0 mi Calm Calm - N/A   Clear
5:37 AM 71.1 °F - 71.1 °F 100% 29.93 in 5.0 mi South 4.6 mph - N/A   Mostly Cloudy
5:53 AM 72.0 °F - 70.0 °F 93% 29.91 in 6.0 mi South 3.5 mph - N/A   Mostly Cloudy
6:35 AM 72.0 °F - 70.0 °F 93% 29.94 in 3.0 mi Calm Calm - N/A   Overcast
6:53 AM 73.0 °F - 70.0 °F 90% 29.91 in 4.0 mi South 3.5 mph - N/A   Overcast
7:15 AM 73.9 °F - 71.1 °F 91% 29.94 in 5.0 mi Calm Calm - N/A   Scattered Clouds
7:30 AM 73.9 °F - 72.0 °F 93% 29.94 in 5.0 mi SSE 4.6 mph - N/A   Mostly Cloudy
7:53 AM 75.9 °F - 73.9 °F 94% 29.92 in 6.0 mi South 3.5 mph - N/A   Mostly Cloudy
8:32 AM 78.1 °F - 75.0 °F 90% 29.96 in 8.0 mi South 6.9 mph - N/A   Mostly Cloudy
8:53 AM 79.0 °F - 75.9 °F 90% 29.94 in 8.0 mi South 5.8 mph - N/A   Overcast
9:09 AM 79.0 °F - 75.9 °F 90% 29.97 in 8.0 mi SSW 11.5 mph - N/A   Overcast
9:53 AM 82.0 °F 89.4 °F 75.9 °F 82% 29.94 in 9.0 mi SSW 10.4 mph - N/A   Overcast
10:53 AM 84.9 °F 95.3 °F 77.0 °F 77% 29.93 in 10.0 mi SSW 9.2 mph - N/A   Mostly Cloudy
11:53 AM 87.1 °F 99.8 °F 78.1 °F 74% 29.92 in 10.0 mi South 9.2 mph - N/A   Mostly Cloudy
12:53 PM 84.0 °F 93.7 °F 77.0 °F 79% 29.94 in 10.0 mi SW 3.5 mph - N/A   Overcast
1:26 PM 87.1 °F 99.8 °F 78.1 °F 74% 29.95 in 10.0 mi South 5.8 mph - N/A   Mostly Cloudy
1:53 PM 84.9 °F 94.1 °F 75.9 °F 74% 29.91 in 10.0 mi South 8.1 mph - N/A   Overcast
2:53 PM 88.0 °F 100.2 °F 77.0 °F 70% 29.87 in 10.0 mi SSE 13.8 mph 19.6 mph N/A   Scattered Clouds
3:53 PM 87.1 °F 97.3 °F 75.9 °F 69% 29.87 in 9.0 mi South 10.4 mph 19.6 mph N/A   Mostly Cloudy
4:53 PM 87.1 °F 97.3 °F 75.9 °F 69% 29.85 in 9.0 mi South 8.1 mph 18.4 mph N/A   Partly Cloudy
5:53 PM 87.1 °F 96.3 °F 75.0 °F 67% 29.83 in 10.0 mi South 10.4 mph 18.4 mph N/A   Scattered Clouds
6:53 PM 86.0 °F 95.1 °F 75.0 °F 70% 29.82 in 10.0 mi South 8.1 mph - N/A   Clear
7:53 PM 84.9 °F 92.1 °F 73.9 °F 69% 29.82 in 10.0 mi South 8.1 mph - N/A   Clear
8:53 PM 82.0 °F 87.4 °F 73.0 °F 74% 29.82 in 10.0 mi SSW 9.2 mph - N/A   Clear
9:53 PM 81.0 °F 85.2 °F 72.0 °F 74% 29.83 in 10.0 mi South 5.8 mph - N/A   Clear
10:53 PM 81.0 °F 85.2 °F 72.0 °F 74% 29.84 in 10.0 mi South 5.8 mph - N/A   Clear
11:53 PM 80.1 °F 83.8 °F 72.0 °F 76% 29.86 in 10.0 mi South 5.8 mph - N/A   Clear